TimePDT,TemperatureF,Dew PointF,Humidity,Sea Level PressureIn,VisibilityMPH,Wind Direction,Wind SpeedMPH,Gust SpeedMPH,PrecipitationIn,Events,Conditions,WindDirDegrees,DateUTC
12:09 AM,50.0,48.9,96,29.93,1.5,Calm,Calm,-,N/A,,Mostly Cloudy,0,2013-05-27 07:09:00
12:22 AM,50.0,48.9,96,29.93,0.8,Calm,Calm,-,N/A,,Mist,0,2013-05-27 07:22:00
12:29 AM,48.9,48.0,97,29.93,1.5,SE,3.5,-,N/A,,Partly Cloudy,130,2013-05-27 07:29:00
12:34 AM,48.0,46.9,96,29.93,0.8,East,3.5,-,N/A,,Mist,100,2013-05-27 07:34:00
12:40 AM,48.9,46.9,93,29.93,1.0,Calm,Calm,-,N/A,,Mist,0,2013-05-27 07:40:00
12:53 AM,46.9,46.9,100,29.93,0.5,Calm,Calm,-,N/A,Fog,Fog,0,2013-05-27 07:53:00
1:00 AM,48.0,46.9,96,29.92,0.2,Calm,Calm,-,N/A,Fog,Fog,0,2013-05-27 08:00:00
1:53 AM,46.9,46.0,97,29.92,0.2,WSW,3.5,-,N/A,Fog,Fog,240,2013-05-27 08:53:00
2:13 AM,46.0,45.0,96,29.91,0.8,Calm,Calm,-,N/A,,Mostly Cloudy,0,2013-05-27 09:13:00
2:20 AM,46.9,46.0,97,29.91,1.2,Calm,Calm,-,N/A,,Mostly Cloudy,0,2013-05-27 09:20:00
2:34 AM,46.9,46.0,97,29.90,4.0,Calm,Calm,-,N/A,,Mostly Cloudy,0,2013-05-27 09:34:00
2:53 AM,46.9,46.0,97,29.90,8.0,Calm,Calm,-,N/A,,Overcast,0,2013-05-27 09:53:00
3:12 AM,48.0,46.9,96,29.89,10.0,Calm,Calm,-,N/A,,Overcast,0,2013-05-27 10:12:00
3:53 AM,48.0,48.0,100,29.87,10.0,Calm,Calm,-,N/A,,Overcast,0,2013-05-27 10:53:00
4:15 AM,48.9,48.0,97,29.85,10.0,Calm,Calm,-,N/A,,Overcast,0,2013-05-27 11:15:00
4:23 AM,48.9,48.0,97,29.85,10.0,Calm,Calm,-,N/A,,Overcast,0,2013-05-27 11:23:00
4:35 AM,48.9,48.0,97,29.85,10.0,Calm,Calm,-,N/A,,Overcast,0,2013-05-27 11:35:00
4:53 AM,48.9,48.0,97,29.84,10.0,Calm,Calm,-,N/A,,Overcast,0,2013-05-27 11:53:00
5:18 AM,50.0,48.0,93,29.83,9.0,Calm,Calm,-,N/A,,Overcast,0,2013-05-27 12:18:00
5:36 AM,50.0,48.0,93,29.82,10.0,Calm,Calm,-,N/A,,Overcast,0,2013-05-27 12:36:00
5:45 AM,50.0,48.9,96,29.81,9.0,Calm,Calm,-,N/A,,Overcast,0,2013-05-27 12:45:00
5:53 AM,50.0,48.0,93,29.82,8.0,Calm,Calm,-,N/A,,Overcast,0,2013-05-27 12:53:00
6:53 AM,50.0,48.9,96,29.78,10.0,Calm,Calm,-,0.00,Rain,Light Rain,0,2013-05-27 13:53:00
7:16 AM,51.1,48.9,92,29.77,10.0,Calm,Calm,-,0.01,Rain,Light Rain,0,2013-05-27 14:16:00
7:22 AM,50.0,48.9,96,29.77,1.0,North,4.6,-,0.01,Rain,Light Rain,350,2013-05-27 14:22:00
7:24 AM,50.0,48.0,93,29.76,0.2,North,4.6,-,0.01,Fog-Rain,Light Rain,360,2013-05-27 14:24:00
7:31 AM,48.9,48.0,97,29.76,0.2,North,3.5,-,0.01,Fog-Rain,Light Rain,350,2013-05-27 14:31:00
7:51 AM,48.2,48.2,100,29.76,0.2,Calm,Calm,-,0.02,Fog-Rain,Light Rain,0,2013-05-27 14:51:00
7:53 AM,48.9,48.0,97,29.76,0.2,Calm,Calm,-,0.02,Fog,Fog,0,2013-05-27 14:53:00
8:37 AM,50.0,48.0,93,29.74,0.2,Calm,Calm,-,N/A,Fog,Fog,0,2013-05-27 15:37:00
8:53 AM,50.0,48.0,93,29.73,0.2,East,3.5,-,N/A,Fog,Fog,80,2013-05-27 15:53:00
9:04 AM,50.0,48.9,96,29.72,1.2,Calm,Calm,-,N/A,,Overcast,0,2013-05-27 16:04:00
9:09 AM,50.0,48.9,96,29.72,0.2,East,4.6,-,N/A,Fog,Fog,100,2013-05-27 16:09:00
9:50 AM,50.0,50.0,100,29.70,1.0,Calm,Calm,-,N/A,,Mist,0,2013-05-27 16:50:00
9:53 AM,50.0,50.0,100,29.70,1.8,Calm,Calm,-,N/A,,Overcast,0,2013-05-27 16:53:00
9:59 AM,51.1,50.0,96,29.70,3.0,Calm,Calm,-,N/A,,Overcast,0,2013-05-27 16:59:00
10:39 AM,52.0,50.0,93,29.68,10.0,Calm,Calm,-,N/A,,Mostly Cloudy,0,2013-05-27 17:39:00
10:53 AM,53.1,51.1,93,29.68,10.0,Variable,3.5,-,N/A,,Mostly Cloudy,0,2013-05-27 17:53:00
11:15 AM,53.1,51.1,93,29.67,10.0,Calm,Calm,-,N/A,,Overcast,0,2013-05-27 18:15:00
11:53 AM,52.0,50.0,93,29.66,9.0,NW,3.5,-,N/A,,Overcast,320,2013-05-27 18:53:00
12:03 PM,53.1,51.1,93,29.65,8.0,NNW,5.8,-,N/A,,Overcast,330,2013-05-27 19:03:00
12:37 PM,54.0,51.1,90,29.65,10.0,Variable,3.5,-,N/A,,Overcast,0,2013-05-27 19:37:00
12:53 PM,55.0,51.1,86,29.65,10.0,NW,3.5,-,N/A,,Overcast,310,2013-05-27 19:53:00
1:53 PM,54.0,51.1,90,29.64,10.0,NW,6.9,-,N/A,,Overcast,320,2013-05-27 20:53:00
2:53 PM,54.0,50.0,86,29.65,10.0,WNW,5.8,-,N/A,,Mostly Cloudy,300,2013-05-27 21:53:00
3:53 PM,55.9,52.0,87,29.67,10.0,West,6.9,-,0.01,Rain,Light Rain,260,2013-05-27 22:53:00
4:53 PM,55.0,51.1,86,29.67,10.0,WNW,4.6,-,0.00,,Mostly Cloudy,300,2013-05-27 23:53:00
5:53 PM,55.9,51.1,84,29.68,10.0,West,6.9,-,N/A,,Overcast,270,2013-05-28 00:53:00
6:53 PM,55.0,51.1,86,29.69,10.0,NW,4.6,-,N/A,,Overcast,320,2013-05-28 01:53:00
7:53 PM,55.9,52.0,87,29.70,10.0,Calm,Calm,-,N/A,,Mostly Cloudy,0,2013-05-28 02:53:00
8:09 PM,55.0,52.0,89,29.70,10.0,Calm,Calm,-,N/A,,Mostly Cloudy,0,2013-05-28 03:09:00
8:24 PM,54.0,51.1,90,29.70,10.0,North,4.6,-,N/A,,Overcast,350,2013-05-28 03:24:00
8:42 PM,52.0,51.1,97,29.70,10.0,WNW,5.8,-,N/A,,Overcast,300,2013-05-28 03:42:00
8:51 PM,51.8,51.8,100,29.70,7.0,WNW,5.8,-,N/A,,Overcast,300,2013-05-28 03:51:00
8:53 PM,52.0,51.1,97,29.70,7.0,WNW,4.6,-,N/A,,Overcast,300,2013-05-28 03:53:00
9:05 PM,52.0,51.1,97,29.71,10.0,West,4.6,-,N/A,,Overcast,280,2013-05-28 04:05:00
9:44 PM,53.1,51.1,93,29.72,10.0,Calm,Calm,-,N/A,,Overcast,0,2013-05-28 04:44:00
9:53 PM,53.1,51.1,93,29.73,10.0,Calm,Calm,-,N/A,,Overcast,0,2013-05-28 04:53:00
10:32 PM,53.1,51.1,93,29.73,10.0,West,5.8,-,N/A,,Overcast,270,2013-05-28 05:32:00
10:53 PM,53.1,51.1,93,29.73,10.0,West,4.6,-,N/A,,Overcast,270,2013-05-28 05:53:00
11:11 PM,54.0,51.1,90,29.74,10.0,West,4.6,-,N/A,,Overcast,260,2013-05-28 06:11:00
11:30 PM,53.1,51.1,93,29.74,9.0,WNW,5.8,-,N/A,,Overcast,290,2013-05-28 06:30:00
11:53 PM,53.1,51.1,93,29.75,10.0,West,6.9,-,0.00,Rain,Light Rain,280,2013-05-28 06:53:00